Погода в Приморске

Россия / Красноярский край     55°12′15″N   91°53′34″E
темп.,
°C
ветер,
м/с
пор.,
м/с
влажн.,
%
обл.,
%
осадки,
мм/ч
давл.,
гПа
погр.,
м
27 февраля, сб
сб2701:00−22юз71382100 0.0 1035484
04:00−23юз51076100 0.0 1037267
07:00−23ююз51074100 0.0 1037289
10:00−20юз6972100 0.0 10371050
13:00−19зюз7981100 0.1 10361159
16:00−18зюз6980100 0.1 10361276
19:00−20юз3485100 0.1 103661
22:00−20юз3696100 0.1 1038143
28 февраля, вс
вс2801:00−21зюз3491100 0.1 103884
04:00−21юз2293100 0.1 103929
07:00−22ююз2294100 0.1 104020
10:00−19юз129097 0.1 1040171
13:00−17зюз247798 0.1 1038488
16:00−16з237898 0.0 1037279
19:00−21юв118892 0.0 103620
22:00−22ююв118797 0.0 103420
1 марта, пн
пн101:00−21всв118798 0.0 103120
04:00−20св1291100 0.0 102828
07:00−18св2297100 0.1 102528
10:00−15св1194100 0.1 1021110
13:00−12всв0192100 0.8 1018196
16:00−9ююз2492100 0.9 1016457
19:00−11вюв1196100 1.4 101421
22:00−10всв1296100 0.9 101366
2 марта, вт
вт201:00−9св1196100 2.3 101141
04:00−9всв1196100 1.9 101037
07:00−9св3396100 4.2 1012116
10:00−12св5696100 1.4 1014227
13:00−11всв3493100 1.9 1016270
16:00−11всв4496100 0.3 1016235
19:00−14всв5795100 0.5 1017179
22:00−16св6896100 0.4 1018232
3 марта, ср
ср301:00−18св6797100 0.9 1017207
04:00−19св5798100 0.3 1016173
07:00−19св5798100 0.4 1017217
10:00−19св5798100 0.3 1016240
13:00−17св6797100 0.4 1016274
16:00−16св6896100 0.3 1016288
19:00−18св7996100 0.6 1017269
22:00−21св71093100 0.1 1019288